�������l�o���
Date,Time,MP-1(��Sv/h),MP-2(��Sv/h),MP-3(��Sv/h),MP-4(��Sv/h),MP-5(��Sv/h),MP-6(��Sv/h),MP-7(��Sv/h),MP-8(��Sv/h),����,����(m/s),���J
2022/05/31,00:00,0.585,0.858,0.548,1.038,0.732,0.344,0.601,0.564,�k�k��,2.6,��
2022/05/31,00:10,0.583,0.860,0.548,1.038,0.730,0.346,0.600,0.563,�k�k��,2.3,��
2022/05/31,00:20,0.583,0.858,0.549,1.037,0.731,0.347,0.599,0.564,�k�k��,2.2,��
2022/05/31,00:30,0.584,0.857,0.549,1.038,0.731,0.347,0.599,0.566,�k,2.3,��
2022/05/31,00:40,0.583,0.858,0.548,1.038,0.730,0.347,0.599,0.564,�k,2.2,��
2022/05/31,00:50,0.584,0.858,0.546,1.038,0.732,0.346,0.600,0.564,�k�k��,2.2,��
2022/05/31,01:00,0.584,0.857,0.548,1.037,0.731,0.346,0.600,0.563,�k,2.3,��
2022/05/31,01:10,0.586,0.857,0.548,1.037,0.732,0.346,0.600,0.566,�k�k��,2.9,��
2022/05/31,01:20,0.585,0.857,0.547,1.038,0.734,0.346,0.601,0.565,�k�k��,2.5,��
2022/05/31,01:30,0.584,0.859,0.548,1.037,0.733,0.347,0.600,0.563,�k,1.5,��
2022/05/31,01:40,0.585,0.857,0.548,1.038,0.732,0.346,0.600,0.565,�k�k��,1.7,�L
2022/05/31,01:50,0.586,0.856,0.549,1.037,0.733,0.346,0.601,0.565,�k��,2.0,�L
2022/05/31,02:00,0.585,0.857,0.549,1.040,0.736,0.346,0.600,0.565,�k�k��,2.6,�L
2022/05/31,02:10,0.583,0.857,0.549,1.038,0.734,0.346,0.599,0.565,�k�k��,2.0,�L
2022/05/31,02:20,0.584,0.856,0.548,1.038,0.733,0.349,0.598,0.562,�k�k��,2.9,�L
2022/05/31,02:30,0.584,0.856,0.548,1.038,0.731,0.346,0.596,0.563,�k,3.4,�L
2022/05/31,02:40,0.585,0.856,0.548,1.035,0.732,0.347,0.596,0.564,�k,3.6,�L
2022/05/31,02:50,0.583,0.855,0.548,1.038,0.731,0.347,0.598,0.565,�k,3.6,�L
2022/05/31,03:00,0.583,0.854,0.547,1.036,0.731,0.347,0.598,0.565,�k,3.2,�L
2022/05/31,03:10,0.582,0.853,0.545,1.037,0.729,0.346,0.597,0.565,�k�k��,3.4,�L
2022/05/31,03:20,0.584,0.852,0.546,1.036,0.731,0.346,0.597,0.563,�k�k��,2.5,�L
2022/05/31,03:30,0.581,0.852,0.545,1.037,0.730,0.347,0.598,0.563,�k�k��,2.6,�L
2022/05/31,03:40,0.580,0.850,0.545,1.033,0.730,0.346,0.597,0.563,�k�k��,2.3,�L
2022/05/31,03:50,0.581,0.849,0.545,1.035,0.730,0.347,0.596,0.560,�k��,2.9,�L
2022/05/31,04:00,0.578,0.847,0.543,1.035,0.727,0.346,0.593,0.561,�k�k��,3.1,�L
2022/05/31,04:10,0.579,0.848,0.543,1.033,0.725,0.344,0.595,0.563,�k�k��,3.1,�L
2022/05/31,04:20,0.578,0.845,0.543,1.035,0.725,0.345,0.594,0.561,�k�k��,2.5,�L
2022/05/31,04:30,0.578,0.846,0.542,1.033,0.723,0.346,0.593,0.562,�k�k��,2.0,�L
2022/05/31,04:40,0.579,0.844,0.541,1.032,0.722,0.343,0.594,0.560,�k�k��,2.5,�L
2022/05/31,04:50,0.578,0.843,0.541,1.033,0.722,0.343,0.593,0.562,�k,2.8,�L
2022/05/31,05:00,0.575,0.840,0.540,1.032,0.723,0.345,0.592,0.560,�k,2.9,�L
2022/05/31,05:10,0.574,0.841,0.539,1.029,0.721,0.344,0.593,0.562,�k,2.6,�L
2022/05/31,05:20,0.576,0.838,0.541,1.027,0.720,0.347,0.591,0.560,�k�k��,2.3,�L
2022/05/31,05:30,0.575,0.839,0.540,1.028,0.719,0.345,0.591,0.559,�k�k��,2.6,�L
2022/05/31,05:40,0.574,0.836,0.539,1.026,0.717,0.345,0.590,0.560,�k�k��,2.2,�L
2022/05/31,05:50,0.574,0.838,0.540,1.022,0.717,0.344,0.592,0.560,�k�k��,2.0,�L
2022/05/31,06:00,0.573,0.836,0.537,1.021,0.718,0.344,0.590,0.559,�k,2.0,�L
2022/05/31,06:10,0.574,0.836,0.539,1.021,0.717,0.344,0.592,0.559,�k�k��,1.5,�L
2022/05/31,06:20,0.571,0.835,0.537,1.022,0.715,0.344,0.590,0.558,�k��,1.7,�L
2022/05/31,06:30,0.572,0.833,0.536,1.019,0.716,0.343,0.592,0.559,�k�k��,2.3,�L
2022/05/31,06:40,0.573,0.833,0.536,1.021,0.714,0.343,0.590,0.559,�k�k��,1.5,�L
2022/05/31,06:50,0.572,0.833,0.538,1.018,0.715,0.343,0.590,0.560,�k�k��,2.5,�L
2022/05/31,07:00,0.573,0.834,0.536,1.018,0.714,0.343,0.589,0.558,�k�k��,2.0,�L
2022/05/31,07:10,0.574,0.831,0.539,1.016,0.715,0.346,0.588,0.558,�k��,1.7,�L
2022/05/31,07:20,0.573,0.831,0.538,1.014,0.714,0.346,0.589,0.557,�k��,1.4,�L
2022/05/31,07:30,0.573,0.830,0.537,1.013,0.713,0.345,0.589,0.556,�k��,2.0,�L
2022/05/31,07:40,0.574,0.829,0.537,1.013,0.711,0.343,0.590,0.556,�k��,2.2,�L
2022/05/31,07:50,0.572,0.829,0.538,1.011,0.711,0.346,0.588,0.555,�k��,1.5,�L
2022/05/31,08:00,0.571,0.828,0.535,1.014,0.709,0.344,0.589,0.557,�k��,1.7,�L
2022/05/31,08:10,0.570,0.826,0.537,1.010,0.711,0.344,0.588,0.555,�k��,1.4,�L
2022/05/31,08:20,0.571,0.823,0.534,1.010,0.710,0.346,0.588,0.555,�k�k��,2.0,�L
2022/05/31,08:30,0.569,0.821,0.535,1.005,0.706,0.345,0.588,0.554,���k��,4.3,�L
2022/05/31,08:40,0.564,0.816,0.534,0.998,0.704,0.344,0.585,0.553,�k�k��,1.7,�L
2022/05/31,08:50,0.566,0.815,0.533,0.994,0.701,0.344,0.585,0.551,�k�k��,1.9,�L
2022/05/31,09:00,0.566,0.813,0.534,0.994,0.700,0.343,0.585,0.551,�k�k��,2.0,�L
2022/05/31,09:10,0.566,0.812,0.534,0.992,0.700,0.345,0.585,0.553,�k��,3.1,�L
2022/05/31,09:20,0.565,0.809,0.533,0.993,0.700,0.342,0.584,0.551,�k��,3.6,�L
2022/05/31,09:30,0.567,0.810,0.535,0.993,0.702,0.343,0.585,0.551,�k�k��,3.6,�L
2022/05/31,09:40,0.564,0.810,0.530,0.990,0.699,0.342,0.585,0.552,�k�k��,3.1,�L
2022/05/31,09:50,0.564,0.810,0.532,0.992,0.699,0.341,0.585,0.551,�k�k��,3.5,�L
2022/05/31,10:00,0.563,0.811,0.531,0.993,0.700,0.341,0.583,0.551,�k�k��,3.4,�L
2022/05/31,10:10,0.565,0.810,0.530,0.991,0.700,0.341,0.584,0.551,�k,3.0,��
2022/05/31,10:20,0.562,0.812,0.530,0.992,0.701,0.339,0.583,0.551,�k�k��,2.8,�L
2022/05/31,10:30,0.561,0.811,0.529,0.991,0.699,0.341,0.583,0.552,�k�k��,2.2,�L
2022/05/31,10:40,0.559,0.811,0.528,0.993,0.700,0.340,0.583,0.552,�k�k��,2.6,�L
2022/05/31,10:50,0.560,0.810,0.531,0.991,0.699,0.340,0.582,0.552,�k,3.1,�L
2022/05/31,11:00,0.558,0.811,0.529,0.992,0.699,0.341,0.584,0.551,�k,3.0,�L
2022/05/31,11:10,0.560,0.811,0.528,0.992,0.699,0.340,0.582,0.551,�k�k��,2.8,�L
2022/05/31,11:20,0.560,0.807,0.528,0.989,0.696,0.339,0.583,0.550,�k,3.1,�L
2022/05/31,11:30,0.561,0.810,0.531,0.991,0.697,0.341,0.581,0.551,�k,3.0,�L
2022/05/31,11:40,0.560,0.807,0.527,0.991,0.696,0.339,0.582,0.550,�k,2.5,�L
2022/05/31,11:50,0.561,0.807,0.527,0.992,0.697,0.338,0.582,0.550,�k,3.0,�L
2022/05/31,12:00,0.558,0.809,0.530,0.991,0.697,0.340,0.582,0.552,�k,2.6,�L
2022/05/31,12:10,0.561,0.808,0.529,0.988,0.697,0.339,0.581,0.550,�k,2.6,�L
2022/05/31,12:20,0.560,0.809,0.528,0.989,0.694,0.340,0.582,0.551,�k�k��,2.6,�L
2022/05/31,12:30,0.557,0.809,0.527,0.990,0.693,0.340,0.581,0.550,�k,2.9,�L
2022/05/31,12:40,0.559,0.807,0.528,0.989,0.694,0.340,0.582,0.550,�k,2.3,�L
2022/05/31,12:50,0.558,0.809,0.529,0.987,0.695,0.339,0.582,0.551,�k�k��,2.9,�L
2022/05/31,13:00,0.557,0.807,0.526,0.988,0.695,0.339,0.580,0.549,�k�k��,2.6,�L
2022/05/31,13:10,0.558,0.808,0.526,0.989,0.694,0.339,0.580,0.550,�k�k��,2.0,�L
2022/05/31,13:20,0.555,0.805,0.525,0.987,0.692,0.339,0.580,0.550,�k�k��,2.0,�L
2022/05/31,13:30,0.555,0.800,0.526,0.985,0.692,0.338,0.580,0.548,�k,3.2,�L
2022/05/31,13:40,0.556,0.801,0.526,0.984,0.692,0.339,0.580,0.551,�k,3.3,�L
2022/05/31,13:50,0.553,0.803,0.528,0.984,0.692,0.338,0.581,0.548,�k,2.5,�L
2022/05/31,14:00,0.557,0.805,0.528,0.985,0.693,0.339,0.581,0.550,�k,3.2,�L
2022/05/31,14:10,0.556,0.804,0.528,0.984,0.691,0.338,0.580,0.548,�k,3.5,�L
2022/05/31,14:20,0.555,0.805,0.526,0.984,0.695,0.339,0.581,0.549,�k�k��,3.5,��
2022/05/31,14:30,0.555,0.804,0.527,0.986,0.694,0.338,0.581,0.550,�k�k��,4.0,�L
2022/05/31,14:40,0.556,0.806,0.527,0.986,0.695,0.339,0.581,0.550,�k�k��,4.2,��
2022/05/31,14:50,0.555,0.807,0.526,0.984,0.696,0.339,0.582,0.550,�k�k��,3.3,��
2022/05/31,15:00,0.557,0.808,0.527,0.986,0.695,0.338,0.582,0.549,�k�k��,2.9,�L
2022/05/31,15:10,0.557,0.807,0.527,0.989,0.695,0.339,0.582,0.550,�k��,2.3,�L
2022/05/31,15:20,0.559,0.808,0.526,0.984,0.695,0.339,0.581,0.550,�k��,0.9,�L
2022/05/31,15:30,0.559,0.808,0.527,0.986,0.694,0.338,0.581,0.550,-,CALM,�L
2022/05/31,15:40,0.560,0.807,0.526,0.987,0.696,0.339,0.582,0.549,�k,1.5,�L
2022/05/31,15:50,0.560,0.810,0.527,0.989,0.696,0.340,0.582,0.549,�k�k��,3.0,�L
2022/05/31,16:00,0.558,0.808,0.527,0.987,0.695,0.338,0.581,0.548,�k�k��,3.4,�L
2022/05/31,16:10,0.559,0.809,0.529,0.986,0.696,0.340,0.582,0.550,�k�k��,3.9,�L
2022/05/31,16:20,0.558,0.808,0.526,0.987,0.696,0.338,0.582,0.548,�k�k��,3.5,�L
2022/05/31,16:30,0.560,0.810,0.528,0.986,0.695,0.338,0.581,0.550,�k,2.8,��
2022/05/31,16:40,0.559,0.808,0.527,0.988,0.695,0.337,0.581,0.550,�k,3.0,��
2022/05/31,16:50,0.558,0.810,0.528,0.988,0.695,0.338,0.582,0.550,�k�k��,2.0,��
2022/05/31,17:00,0.559,0.810,0.527,0.987,0.695,0.339,0.582,0.552,�k��,1.2,��
2022/05/31,17:10,0.558,0.811,0.527,0.990,0.696,0.338,0.581,0.551,-,CALM,��
2022/05/31,17:20,0.561,0.811,0.528,0.987,0.695,0.338,0.582,0.550,�k�k��,0.9,��
2022/05/31,17:30,0.559,0.811,0.528,0.988,0.695,0.337,0.582,0.550,�k��,1.4,��
2022/05/31,17:40,0.561,0.812,0.526,0.989,0.693,0.340,0.583,0.549,�k�k��,2.8,��
2022/05/31,17:50,0.558,0.811,0.527,0.989,0.697,0.339,0.583,0.551,�k�k��,3.1,��
2022/05/31,18:00,0.559,0.811,0.527,0.990,0.696,0.337,0.583,0.550,�k�k��,2.2,��
2022/05/31,18:10,0.560,0.813,0.526,0.987,0.696,0.338,0.582,0.550,�k��,0.8,��
2022/05/31,18:20,0.560,0.812,0.527,0.990,0.697,0.338,0.582,0.552,�쐼,0.9,��
2022/05/31,18:30,0.562,0.813,0.528,0.992,0.697,0.340,0.582,0.551,��쓌,0.8,��
2022/05/31,18:40,0.562,0.812,0.527,0.988,0.696,0.337,0.582,0.552,-,CALM,��
2022/05/31,18:50,0.561,0.810,0.527,0.989,0.696,0.339,0.583,0.550,-,CALM,��
2022/05/31,19:00,0.559,0.812,0.527,0.990,0.696,0.339,0.582,0.550,��쓌,0.6,�L
2022/05/31,19:10,0.561,0.811,0.526,0.990,0.697,0.338,0.584,0.552,���k��,1.1,��
2022/05/31,19:20,0.560,0.814,0.528,0.991,0.698,0.338,0.583,0.552,���쓌,0.9,��
2022/05/31,19:30,0.563,0.813,0.528,0.988,0.698,0.340,0.583,0.552,��,1.2,��
2022/05/31,19:40,0.560,0.812,0.530,0.986,0.698,0.338,0.583,0.551,��쓌,1.2,��
2022/05/31,19:50,0.561,0.815,0.527,0.990,0.696,0.338,0.584,0.551,��,2.2,��
2022/05/31,20:00,0.560,0.811,0.528,0.992,0.699,0.337,0.583,0.554,��,2.6,��
2022/05/31,20:10,0.560,0.812,0.527,0.991,0.697,0.336,0.583,0.552,��,2.8,��
2022/05/31,20:20,0.560,0.815,0.528,0.990,0.699,0.340,0.582,0.552,��,2.0,��
2022/05/31,20:30,0.562,0.814,0.527,0.990,0.696,0.337,0.584,0.553,��쓌,1.7,��
2022/05/31,20:40,0.562,0.813,0.528,0.990,0.700,0.337,0.582,0.552,��쓌,1.4,��
2022/05/31,20:50,0.560,0.815,0.529,0.991,0.700,0.338,0.583,0.552,��쐼,1.7,��
2022/05/31,21:00,0.561,0.815,0.527,0.989,0.698,0.339,0.584,0.551,��,1.7,��
2022/05/31,21:10,0.562,0.815,0.529,0.991,0.699,0.339,0.582,0.553,��쐼,2.0,��
2022/05/31,21:20,0.562,0.813,0.529,0.990,0.699,0.339,0.583,0.554,��,2.3,��
2022/05/31,21:30,0.560,0.815,0.528,0.992,0.699,0.338,0.583,0.554,��쐼,4.0,��
2022/05/31,21:40,0.563,0.816,0.529,0.989,0.698,0.339,0.584,0.554,��쐼,4.2,��
2022/05/31,21:50,0.562,0.816,0.529,0.990,0.700,0.340,0.585,0.552,��,1.9,��
2022/05/31,22:00,0.562,0.814,0.529,0.991,0.700,0.340,0.583,0.552,��,2.6,��
2022/05/31,22:10,0.563,0.814,0.527,0.992,0.700,0.339,0.585,0.553,��,4.0,��
2022/05/31,22:20,0.562,0.816,0.528,0.990,0.699,0.340,0.582,0.552,��,3.2,��
2022/05/31,22:30,0.563,0.815,0.528,0.989,0.701,0.339,0.582,0.552,��쓌,2.0,��
2022/05/31,22:40,0.563,0.814,0.527,0.992,0.699,0.340,0.585,0.553,�쐼,2.5,��
2022/05/31,22:50,0.562,0.817,0.528,0.990,0.699,0.340,0.585,0.552,��,4.2,��
2022/05/31,23:00,0.562,0.814,0.528,0.991,0.700,0.339,0.584,0.553,��쓌,1.7,��
2022/05/31,23:10,0.560,0.815,0.529,0.990,0.700,0.339,0.584,0.554,��,0.6,��
2022/05/31,23:20,0.562,0.815,0.528,0.993,0.702,0.339,0.584,0.552,�k�k��,1.7,��
2022/05/31,23:30,0.562,0.813,0.527,0.990,0.700,0.340,0.584,0.553,�k�k��,1.5,��
2022/05/31,23:40,0.561,0.816,0.526,0.992,0.700,0.340,0.585,0.553,�k�k��,1.1,��
2022/05/31,23:50,0.561,0.814,0.528,0.991,0.700,0.338,0.585,0.552,�k�k��,0.8,��
